DW9882 Weather Reports


time (UTC)temp
F
wind
direction
speed
knots
gust
knots
rain 1hr
in
rain 24hr
in
rain mn
in
humidity
%
barometer
mb
20260831045704 64 61 0.0 1.7 0.00 0.02 0.02 79 1021.8
20260831045204 64 61 0.0 0.0 0.00 0.02 0.02 78 1021.8
20260831044704 64 61 0.0 0.0 0.00 0.02 0.02 78 1021.7
20260831044203 64 61 0.0 0.0 0.00 0.02 0.02 78 1021.7
20260831043704 64 61 0.0 0.0 0.00 0.02 0.02 78 1021.6
20260831043204 64 61 0.0 0.0 0.00 0.02 0.02 78 1021.5
20260831042205 65 61 0.0 0.0 0.00 0.02 0.02 77 1021.2
20260831041704 65 61 0.0 0.0 0.00 0.02 0.02 77 1021.2
20260831041204 65 61 0.0 0.0 0.00 0.02 0.02 77 1021.1
20260831040704 65 61 0.0 0.0 0.00 0.02 0.02 77 1021.1
20260831040204 65 61 0.0 0.0 0.00 0.02 0.02 77 1021.1
20260831035704 65 61 0.0 0.0 0.00 0.02 0.02 77 1021.2
20260831035204 65 61 0.0 0.0 0.00 0.02 0.02 77 1021.1
20260831034704 65 61 0.0 0.0 0.00 0.02 0.02 77 1021.0
20260831033704 65 61 0.0 0.0 0.00 0.02 0.02 76 1020.9
20260831033204 65 61 0.0 0.0 0.00 0.02 0.02 76 1020.9
20260831032704 65 61 0.0 0.0 0.00 0.02 0.02 75 1021.0
20260831031705 65 61 0.0 0.0 0.00 0.02 0.02 75 1021.0
20260831030704 66 61 0.0 0.0 0.00 0.02 0.02 74 1021.0
20260831030203 66 61 0.0 0.0 0.00 0.02 0.02 74 1021.0
20260831025704 66 61 0.0 0.0 0.00 0.02 0.02 73 1020.8
20260831025203 66 61 0.0 0.0 0.00 0.02 0.02 73 1020.8
20260831024704 66 61 0.0 0.0 0.00 0.02 0.02 73 1020.8
20260831024204 66 61 0.0 0.0 0.00 0.02 0.02 72 1020.7
20260831023704 66 61 0.0 0.0 0.00 0.02 0.02 71 1020.6
20260831023204 67 61 0.0 0.0 0.00 0.02 0.02 71 1020.6
20260831022704 67 61 0.0 0.0 0.00 0.02 0.02 70 1020.4
20260831021204 68 61 0.0 0.0 0.00 0.02 0.02 69 1020.5
20260831020704 68 61 0.0 0.0 0.00 0.02 0.02 68 1020.4
20260831020204 69 61 0.0 0.0 0.00 0.02 0.02 67 1020.4
20260831015204 69 61 0.0 0.0 0.00 0.02 0.02 67 1020.4
20260831014703 69 61 0.0 0.0 0.00 0.02 0.02 66 1020.4
20260831014204 70 61 0.0 0.0 0.00 0.02 0.02 65 1020.4
20260831013703 70 61 0.0 0.0 0.00 0.02 0.02 65 1020.2
20260831013204 71 61 0.0 0.0 0.00 0.02 0.02 63 1020.2
20260831012204 71 61 0.0 0.0 0.00 0.02 0.02 63 1020.2
20260831011703 72 61 0.0 0.0 0.00 0.02 0.02 63 1020.1
20260831011203 72 61 0.0 0.0 0.00 0.02 0.02 62 1020.2
20260831010705 72 61 0.0 0.9 0.00 0.02 0.02 61 1020.0
20260831010206 73 61 0.0 1.7 0.00 0.02 0.02 61 1020.2
20260831005705 73 61 0.9 1.7 0.00 0.02 0.02 59 1020.3
20260831005205 73 61 0.0 0.0 0.00 0.02 0.02 59 1020.2
20260831004705 74 61 0.0 0.9 0.00 0.02 0.02 59 1020.3
20260831004205 74 61 0.0 1.7 0.00 0.02 0.02 59 1020.3
20260831003705 74 61 0.9 2.6 0.00 0.02 0.02 58 1020.2
20260831003205 74 183 0.0 0.9 0.00 0.02 0.02 58 1020.1
20260831001705 75 186 0.9 4.3 0.00 0.02 0.02 57 1020.0
20260831001205 75 174 1.7 7.8 0.00 0.02 0.02 55 1020.2
20260831000705 75 207 0.9 4.3 0.00 0.02 0.02 54 1020.3
20260831000205 75 197 0.9 2.6 0.00 0.02 0.02 53 1020.4
20260830235706 75 197 1.7 5.2 0.00 0.02 0.02 53 1020.4
20260830234205 75 142 1.7 4.3 0.00 0.02 0.02 53 1020.2
20260830233705 74 176 0.9 4.3 0.00 0.02 0.02 53 1020.2
20260830233205 74 196 0.9 2.6 0.00 0.02 0.02 52 1020.2
20260830232705 74 196 0.9 2.6 0.00 0.02 0.02 52 1020.0
20260830232205 74 155 0.9 5.2 0.00 0.02 0.02 52 1020.0
20260830231706 73 147 0.0 1.7 0.00 0.02 0.02 57 1019.9
20260830230706 72 114 1.7 2.6 0.00 0.02 0.02 57 1019.8
20260830230205 72 115 0.9 1.7 0.01 0.02 0.02 56 1019.9
20260830225705 72 24 0.0 1.7 0.01 0.02 0.02 57 1020.0
20260830224705 71 24 0.0 0.9 0.01 0.02 0.02 58 1020.0
20260830224205 71 24 0.0 0.9 0.01 0.02 0.02 59 1020.0
20260830223205 70 243 0.9 1.7 0.01 0.02 0.02 60 1020.0
20260830222705 70 243 0.0 0.9 0.01 0.02 0.02 62 1020.1
20260830222205 69 243 0.0 0.9 0.01 0.02 0.02 63 1020.2
20260830221706 69 243 0.0 1.7 0.01 0.02 0.02 61 1020.2
20260830221206 69 243 0.0 0.9 0.01 0.02 0.02 64 1020.4
20260830220706 68 243 0.0 0.9 0.01 0.02 0.02 67 1020.5
20260830215705 67 243 0.0 0.0 0.00 0.01 0.01 64 1020.6
20260830215205 67 242 0.0 0.0 0.00 0.01 0.01 63 1020.7
20260830214706 67 242 0.0 4.3 0.01 0.02 0.01 65 1020.8
20260830214206 67 28 0.0 1.7 0.01 0.02 0.01 66 1020.8
20260830213706 67 28 0.0 2.6 0.01 0.02 0.01 65 1020.8
20260830213205 67 29 1.7 2.6 0.01 0.02 0.01 63 1020.9
20260830212705 66 47 0.9 5.2 0.01 0.02 0.01 63 1020.8
20260830212205 66 78 1.7 4.3 0.01 0.02 0.01 64 1020.9
20260830211705 66 239 0.0 0.9 0.01 0.02 0.01 68 1021.1
20260830211205 67 239 0.0 0.9 0.01 0.02 0.01 68 1021.1
20260830210705 67 241 0.9 2.6 0.01 0.02 0.01 66 1021.1
20260830210205 67 336 1.7 4.3 0.01 0.02 0.01 63 1021.0
20260830205705 68 355 1.7 10.4 0.01 0.02 0.01 61 1020.9
20260830205205 70 354 1.7 5.2 0.01 0.02 0.01 57 1020.8
20260830204705 72 343 2.6 10.4 0.00 0.01 0.00 51 1021.0
20260830204206 73 295 5.2 13.9 0.00 0.01 0.00 45 1020.9
20260830203705 75 350 4.3 11.3 0.00 0.01 0.00 42 1020.7
20260830203205 78 280 5.2 17.4 0.00 0.01 0.00 40 1020.3
20260830202705 80 349 4.3 8.7 0.00 0.01 0.00 44 1020.1
20260830202205 81 358 2.6 10.4 0.00 0.01 0.00 44 1019.8
20260830201705 82 4 2.6 8.7 0.00 0.01 0.00 39 1019.4
20260830201205 82 74 0.9 1.7 0.00 0.01 0.00 37 1019.6
20260830200205 83 74 0.0 0.9 0.00 0.01 0.00 38 1019.1
20260830195705 83 74 0.9 2.6 0.00 0.01 0.00 35 1018.9
20260830195205 83 74 0.0 2.6 0.00 0.01 0.00 37 1018.7
20260830194705 83 137 0.0 1.7 0.00 0.01 0.00 39 1018.6
20260830194204 83 137 0.0 0.9 0.00 0.01 0.00 37 1018.6
20260830193705 83 90 0.9 2.6 0.00 0.01 0.00 35 1018.5
20260830193205 83 195 0.9 5.2 0.00 0.01 0.00 39 1018.5
20260830192205 83 161 0.0 1.7 0.00 0.01 0.00 38 1018.5
20260830191705 83 161 0.0 1.7 0.00 0.01 0.00 39 1018.5
20260830191205 82 211 0.9 4.3 0.00 0.01 0.00 40 1018.6
20260830190705 82 198 1.7 2.6 0.00 0.01 0.00 38 1018.5
20260830190205 81 102 0.9 2.6 0.00 0.01 0.00 40 1018.5
20260830185705 81 169 0.0 1.7 0.00 0.01 0.00 40 1018.7
20260830185205 81 153 0.9 1.7 0.00 0.01 0.00 41 1018.7
20260830184705 81 153 0.9 2.6 0.00 0.01 0.00 40 1018.7
20260830184205 81 121 0.0 1.7 0.00 0.01 0.00 40 1018.8
20260830183705 81 119 0.9 2.6 0.00 0.01 0.00 40 1018.9
20260830183204 81 104 0.9 2.6 0.00 0.01 0.00 40 1018.9
20260830182205 80 141 0.9 2.6 0.00 0.01 0.00 41 1019.1
20260830181206 81 119 0.0 0.9 0.00 0.01 0.00 42 1019.2
20260830180705 81 119 0.0 0.9 0.00 0.01 0.00 44 1019.3
20260830180204 80 119 0.0 1.7 0.00 0.01 0.00 40 1019.3
20260830175705 80 119 0.0 1.7 0.00 0.01 0.00 41 1019.4
20260830175205 80 119 0.0 1.7 0.00 0.01 0.00 41 1019.4
20260830174705 80 119 0.9 2.6 0.00 0.01 0.00 41 1019.5
20260830174205 80 74 0.9 2.6 0.00 0.01 0.00 42 1019.5
20260830173705 80 94 0.9 2.6 0.00 0.01 0.00 41 1019.6
20260830173205 80 130 0.0 1.7 0.00 0.01 0.00 45 1019.7
20260830172204 80 129 0.9 2.6 0.00 0.01 0.00 44 1019.8
20260830171705 80 130 0.9 2.6 0.00 0.01 0.00 44 1019.8
20260830171205 79 168 0.9 2.6 0.00 0.01 0.00 44 1019.8
20260830170205 79 149 0.9 2.6 0.00 0.01 0.00 45 1019.8
20260830165705 78 149 0.9 2.6 0.00 0.01 0.00 48 1019.8
20260830165205 78 149 0.0 0.0 0.00 0.01 0.00 47 1019.9
20260830164705 78 149 0.0 0.0 0.00 0.01 0.00 45 1019.9
20260830164205 77 204 0.0 0.0 0.00 0.01 0.00 46 1019.9
20260830163704 77 204 0.0 0.0 0.00 0.01 0.00 48 1019.9
20260830163205 76 204 0.0 0.0 0.00 0.01 0.00 48 1020.0
20260830162704 76 204 0.0 0.0 0.00 0.01 0.00 46 1020.0
20260830162205 74 204 0.0 0.0 0.00 0.01 0.00 52 1020.0
20260830161705 74 204 0.0 0.0 0.00 0.01 0.00 52 1020.1
20260830161205 73 204 0.0 0.0 0.00 0.01 0.00 54 1020.1
20260830160704 72 204 0.0 0.0 0.00 0.01 0.00 54 1020.1
20260830160205 72 204 0.0 0.0 0.00 0.01 0.00 55 1020.1
20260830155705 71 204 0.0 0.0 0.00 0.01 0.00 56 1020.1
20260830155204 71 204 0.0 0.0 0.00 0.01 0.00 60 1020.1
20260830154705 70 204 0.0 0.0 0.00 0.01 0.00 62 1020.2
20260830154205 70 204 0.0 0.0 0.00 0.01 0.00 62 1020.3
20260830153704 69 204 0.0 0.0 0.00 0.01 0.00 64 1020.3
20260830153205 69 204 0.0 0.0 0.00 0.01 0.00 65 1020.2
20260830152705 68 204 0.0 0.0 0.00 0.01 0.00 64 1020.1
20260830152205 68 204 0.0 0.0 0.00 0.01 0.00 69 1020.3
20260830151704 67 204 0.0 0.0 0.00 0.01 0.00 69 1020.2
20260830151205 67 204 0.0 0.0 0.00 0.01 0.00 72 1020.2
20260830150204 65 204 0.0 0.0 0.00 0.01 0.00 75 1020.2
20260830145705 65 204 0.0 0.0 0.00 0.01 0.00 76 1020.0
20260830145205 64 204 0.0 0.0 0.00 0.01 0.00 77 1020.0
20260830144705 64 204 0.0 0.0 0.00 0.01 0.00 78 1019.9
20260830144204 63 204 0.0 0.0 0.00 0.01 0.00 79 1019.9
20260830143705 62 204 0.0 0.0 0.00 0.01 0.00 80 1019.8
20260830143205 62 204 0.0 0.0 0.00 0.01 0.00 80 1019.8
20260830142704 62 204 0.0 0.0 0.00 0.01 0.00 82 1019.8
20260830142205 61 204 0.0 0.0 0.00 0.01 0.00 82 1019.9
20260830141705 60 204 0.0 0.0 0.00 0.01 0.00 81 1019.9
20260830141204 60 204 0.0 0.0 0.00 0.01 0.00 82 1019.9
20260830140705 60 204 0.0 0.0 0.00 0.01 0.00 82 1019.9
20260830140204 59 204 0.0 0.0 0.00 0.01 0.00 82 1020.0
20260830135704 59 204 0.0 0.0 0.00 0.01 0.00 82 1020.0
20260830133705 58 204 0.0 0.0 0.00 0.01 0.00 82 1019.9
20260830133204 58 204 0.0 0.0 0.00 0.01 0.00 82 1019.9
20260830132705 57 204 0.0 0.0 0.00 0.01 0.00 81 1019.9
20260830132205 57 204 0.0 0.9 0.00 0.01 0.00 81 1019.9
20260830131705 57 204 0.0 0.0 0.00 0.01 0.00 81 1019.8
20260830131205 57 204 0.0 0.0 0.00 0.01 0.00 81 1019.7
20260830130705 57 204 0.0 0.0 0.00 0.01 0.00 80 1019.7
20260830130204 57 204 0.0 0.9 0.00 0.01 0.00 80 1019.7
20260830125705 57 204 0.0 0.0 0.00 0.01 0.00 80 1019.7
20260830125205 57 204 0.0 0.0 0.00 0.01 0.00 80 1019.8
20260830124704 57 204 0.0 0.0 0.00 0.01 0.00 79 1019.6
20260830124205 57 204 0.0 0.0 0.00 0.01 0.00 79 1019.5
20260830123704 57 204 0.0 0.0 0.00 0.01 0.00 78 1019.5
20260830122204 58 204 0.0 0.0 0.00 0.01 0.00 78 1019.4
20260830121704 58 204 0.0 0.0 0.00 0.01 0.00 77 1019.4
20260830121205 58 204 0.0 0.0 0.00 0.01 0.00 77 1019.3
20260830120705 58 204 0.0 0.0 0.00 0.01 0.00 77 1019.1
20260830120204 58 204 0.0 0.0 0.00 0.01 0.00 76 1019.1
20260830115705 58 204 0.0 0.0 0.00 0.01 0.00 76 1019.1
20260830115205 58 204 0.0 0.0 0.00 0.01 0.00 75 1019.1
20260830114704 58 204 0.0 0.0 0.00 0.01 0.00 75 1018.9
20260830114205 58 204 0.0 0.0 0.00 0.01 0.00 75 1018.8
20260830113705 59 204 0.0 0.0 0.00 0.01 0.00 75 1018.8
20260830113205 59 204 0.0 0.0 0.00 0.01 0.00 74 1018.9
20260830112705 59 204 0.0 0.0 0.00 0.01 0.00 74 1018.9
20260830112204 59 204 0.0 0.0 0.00 0.01 0.00 74 1018.9
20260830111704 59 204 0.0 0.0 0.00 0.01 0.00 74 1018.9
20260830111204 59 204 0.0 0.0 0.00 0.01 0.00 73 1018.9
20260830110705 60 204 0.0 0.0 0.00 0.01 0.00 73 1018.8
20260830105704 60 204 0.0 0.0 0.00 0.01 0.00 73 1019.0
20260830105204 60 204 0.0 0.0 0.00 0.01 0.00 72 1019.1
20260830104704 60 204 0.0 0.0 0.00 0.01 0.00 72 1019.1
20260830103704 61 204 0.0 0.0 0.00 0.01 0.00 71 1019.0
20260830103205 61 204 0.0 0.0 0.00 0.01 0.00 71 1019.0
20260830102704 61 204 0.0 0.0 0.00 0.01 0.00 71 1018.9
20260830102204 61 204 0.0 0.0 0.00 0.01 0.00 70 1018.9
20260830101704 61 204 0.0 0.0 0.00 0.01 0.00 70 1018.9
20260830101204 61 204 0.0 0.0 0.00 0.01 0.00 70 1018.8
20260830100704 61 204 0.0 0.0 0.00 0.01 0.00 69 1018.8
20260830100204 61 204 0.0 0.0 0.00 0.01 0.00 70 1018.9
20260830095205 61 204 0.0 0.0 0.00 0.01 0.00 69 1018.9
20260830094704 61 204 0.0 0.0 0.00 0.01 0.00 69 1018.8
20260830093704 62 204 0.0 0.0 0.00 0.01 0.00 69 1018.9
20260830093204 62 204 0.0 0.0 0.00 0.01 0.00 69 1018.9
20260830091704 62 204 0.0 0.0 0.00 0.01 0.00 69 1018.9
20260830091204 62 204 0.0 0.0 0.00 0.01 0.00 68 1018.8
20260830090704 62 204 0.0 0.0 0.00 0.01 0.00 69 1018.7
20260830090205 62 204 0.0 0.0 0.00 0.01 0.00 68 1018.7
20260830085704 62 204 0.0 0.0 0.00 0.01 0.00 68 1018.8
20260830085204 62 204 0.0 0.0 0.00 0.01 0.00 69 1018.8
20260830084704 62 204 0.0 0.0 0.00 0.01 0.00 68 1018.9
20260830084204 62 204 0.0 0.0 0.00 0.01 0.00 68 1019.0
20260830083704 62 204 0.0 0.0 0.00 0.01 0.00 69 1019.0
20260830083204 62 204 0.0 0.0 0.00 0.01 0.00 68 1019.1
20260830082205 63 204 0.0 0.9 0.00 0.01 0.00 67 1018.9
20260830081704 63 204 0.0 0.0 0.00 0.01 0.00 66 1019.0
20260830081204 63 204 0.0 0.0 0.00 0.01 0.00 65 1018.9
20260830080704 63 204 0.0 0.0 0.00 0.01 0.00 64 1019.0
20260830075204 64 204 0.0 0.0 0.00 0.01 0.00 63 1019.2
20260830074704 64 204 0.0 0.9 0.00 0.01 0.00 62 1019.2
20260830074204 64 204 0.0 1.7 0.00 0.01 0.00 61 1019.2
20260830073704 65 204 0.0 0.0 0.00 0.01 0.00 61 1019.3
20260830073204 65 204 0.0 0.0 0.00 0.01 0.00 60 1019.2
20260830072704 65 204 0.0 0.0 0.00 0.01 0.00 59 1019.1
20260830072204 65 204 0.0 0.0 0.00 0.01 0.00 59 1019.0
20260830071204 65 204 0.0 0.0 0.00 0.01 0.00 58 1019.2
20260830070704 65 204 0.0 0.0 0.00 0.01 0.00 57 1019.3
20260830070203 66 204 0.0 0.0 0.00 0.01 0.00 57 1019.3
20260830065204 66 204 0.0 0.0 0.00 0.01 0.00 56 1019.5
20260830064703 66 204 0.0 0.0 0.00 0.01 0.00 56 1019.5
20260830064204 66 204 0.0 0.9 0.00 0.01 0.00 56 1019.5
20260830063704 66 204 0.0 0.9 0.00 0.01 0.00 56 1019.6
20260830063205 66 204 0.0 0.0 0.00 0.01 0.00 56 1019.7
20260830062704 66 204 0.0 0.9 0.00 0.01 0.00 56 1019.7
20260830062204 66 204 0.0 1.7 0.00 0.01 0.00 56 1019.9
20260830061704 66 204 0.0 1.7 0.00 0.01 0.00 57 1019.9
20260830060705 66 204 0.9 5.2 0.00 0.01 0.00 60 1019.9
20260830055204 66 175 0.0 1.7 0.00 0.01 0.01 64 1020.0
20260830054704 66 175 0.0 1.7 0.00 0.01 0.01 64 1020.1
20260830054204 66 175 0.0 2.6 0.00 0.01 0.01 64 1020.2
20260830053704 66 189 0.0 0.9 0.00 0.01 0.01 64 1020.2
20260830053204 66 189 0.9 4.3 0.00 0.01 0.01 64 1020.2
20260830052704 66 189 0.9 2.6 0.00 0.01 0.01 64 1020.2
20260830052204 66 189 0.9 2.6 0.00 0.01 0.01 64 1020.2
20260830051704 67 189 0.0 2.6 0.00 0.01 0.01 64 1020.3
20260830050704 67 177 0.0 1.7 0.00 0.01 0.01 64 1020.3
20260830050204 67 177 0.9 4.3 0.00 0.01 0.01 64 1020.3